Overview Statistics Trail Chart Weather Telemetry Raw packets
 

This is the latest recevied weather packets stored in our database for station/object SV1JSO-13. If no packets are shown the sender has not sent any weather packets the latest 10 day(s).

<< 21 22 23 24 25 26 27 >>
Time Temp. Humidity Pressure Rain* Wind** Luminosity Snow
1788513901 30.56° C 41% 1008.4 hPa 0 mm - 725 W/m² -
1788513600 30° C 42% 1008.5 hPa 0 mm - 613 W/m² -
1788513301 30.56° C 41% 1008.3 hPa 0 mm - 161 W/m² -
1788513001 30.56° C 40% 1008.4 hPa 0 mm - 187 W/m² -
1788512700 30° C 42% 1008.2 hPa 0 mm - 739 W/m² -
1788512401 30° C 43% 1008.4 hPa 0 mm - 691 W/m² -
1788512101 30° C 43% 1008.4 hPa 0 mm - 189 W/m² -
1788511801 30° C 44% 1008.4 hPa 0 mm - 186 W/m² -
1788511501 30° C 44% 1008.3 hPa 0 mm - 170 W/m² -
1788511201 30° C 43% 1008.4 hPa 0 mm - 667 W/m² -
1788510901 30° C 44% 1008.4 hPa 0 mm - 657 W/m² -
1788510601 30° C 43% 1008.3 hPa 0 mm - 187 W/m² -
1788510300 30° C 44% 1008.5 hPa 0 mm - 655 W/m² -
1788510001 30° C 44% 1008.5 hPa 0 mm - 619 W/m² -
1788509701 29.44° C 45% 1008.4 hPa 0 mm - 610 W/m² -
1788509401 29.44° C 45% 1008.6 hPa 0 mm - 164 W/m² -
1788509101 29.44° C 45% 1008.4 hPa 0 mm - 536 W/m² -
1788508801 29.44° C 44% 1008.4 hPa 0 mm - 572 W/m² -
1788508500 29.44° C 44% 1008.5 hPa 0 mm - 542 W/m² -
1788508200 29.44° C 44% 1008.3 hPa 0 mm - 537 W/m² -
1788507901 29.44° C 43% 1008.5 hPa 0 mm - 521 W/m² -
1788507601 29.44° C 43% 1008.2 hPa 0 mm - 501 W/m² -
1788507300 29.44° C 43% 1008.3 hPa 0 mm - 502 W/m² -
1788507000 29.44° C 43% 1008.2 hPa 0 mm - 486 W/m² -
1788506701 29.44° C 43% 1008.2 hPa 0 mm - 457 W/m² -

* Rain latest hour (hover to see other rain measurements)
** Current wind speed in m/s (hover to see current wind gust speed)